Time,TemperatureF,DewpointF,PressureIn,WindDirection,WindDirectionDegrees,WindSpeedMPH,WindSpeedGustMPH,Humidity,HourlyPrecipIn,Conditions,Clouds,dailyrainin,SoftwareType,DateUTC
2013-06-22 00:02:00,66.2,56.5,30.19,East,100,0.0,5.0,71,0.00,,,0.00,meteohub,2013-06-22 04:02:00,
2013-06-22 00:07:00,65.8,56.1,30.19,SSE,168,0.0,5.0,71,0.00,,,0.00,meteohub,2013-06-22 04:07:00,
2013-06-22 00:12:00,65.8,56.5,30.19,East,100,0.0,5.0,72,0.00,,,0.00,meteohub,2013-06-22 04:12:00,
2013-06-22 00:17:00,65.7,56.5,30.19,South,190,0.0,5.0,72,0.00,,,0.00,meteohub,2013-06-22 04:17:00,
2013-06-22 00:22:00,65.5,56.3,30.19,South,190,0.0,3.0,72,0.00,,,0.00,meteohub,2013-06-22 04:22:00,
2013-06-22 00:27:00,65.3,56.1,30.22,SE,145,0.0,0.0,72,0.00,,,0.00,meteohub,2013-06-22 04:27:00,
2013-06-22 00:32:00,65.1,55.9,30.22,SE,145,0.0,0.0,72,0.00,,,0.00,meteohub,2013-06-22 04:32:00,
2013-06-22 00:37:00,65.1,55.9,30.22,SE,145,3.0,0.0,72,0.00,,,0.00,meteohub,2013-06-22 04:37:00,
2013-06-22 00:42:00,64.9,56.1,30.22,North,10,0.0,4.0,73,0.00,,,0.00,meteohub,2013-06-22 04:42:00,
2013-06-22 00:47:00,64.8,55.9,30.22,West,280,0.0,4.0,73,0.00,,,0.00,meteohub,2013-06-22 04:47:00,
2013-06-22 00:52:00,64.4,55.6,30.22,SSE,168,3.0,3.0,73,0.00,,,0.00,meteohub,2013-06-22 04:52:00,
2013-06-22 00:57:00,64.4,55.9,30.22,East,100,3.0,4.0,74,0.00,,,0.00,meteohub,2013-06-22 04:57:00,
2013-06-22 01:02:00,64.2,55.8,30.22,East,100,0.0,4.0,74,0.00,,,0.00,meteohub,2013-06-22 05:02:00,
2013-06-22 01:07:00,64.0,55.9,30.22,NNW,348,0.0,4.0,75,0.00,,,0.00,meteohub,2013-06-22 05:07:00,
2013-06-22 01:12:00,63.9,55.8,30.22,NNE,32,0.0,3.0,75,0.00,,,0.00,meteohub,2013-06-22 05:12:00,
2013-06-22 01:17:00,63.7,55.9,30.22,SSE,168,3.0,3.0,76,0.00,,,0.00,meteohub,2013-06-22 05:17:00,
2013-06-22 01:22:00,63.5,55.8,30.22,SE,145,3.0,3.0,76,0.00,,,0.00,meteohub,2013-06-22 05:22:00,
2013-06-22 01:27:00,63.5,55.8,30.22,South,190,0.0,4.0,76,0.00,,,0.00,meteohub,2013-06-22 05:27:00,
2013-06-22 01:32:00,63.1,55.4,30.22,North,10,0.0,4.0,76,0.00,,,0.00,meteohub,2013-06-22 05:32:00,
2013-06-22 01:37:00,63.0,55.6,30.22,North,10,0.0,4.0,77,0.00,,,0.00,meteohub,2013-06-22 05:37:00,
2013-06-22 01:42:00,62.8,55.4,30.25,South,190,0.0,0.0,77,0.00,,,0.00,meteohub,2013-06-22 05:42:00,
2013-06-22 01:47:00,62.6,55.2,30.25,ESE,122,0.0,0.0,77,0.00,,,0.00,meteohub,2013-06-22 05:47:00,
2013-06-22 01:52:00,62.6,55.6,30.25,SE,145,0.0,0.0,78,0.00,,,0.00,meteohub,2013-06-22 05:52:00,
2013-06-22 01:57:00,62.4,55.4,30.22,SSE,168,0.0,0.0,78,0.00,,,0.00,meteohub,2013-06-22 05:57:00,
2013-06-22 02:02:00,62.2,55.6,30.22,SSE,168,0.0,0.0,79,0.00,,,0.00,meteohub,2013-06-22 06:02:00,
2013-06-22 02:07:00,62.1,55.4,30.22,SSW,212,0.0,0.0,79,0.00,,,0.00,meteohub,2013-06-22 06:07:00,
2013-06-22 02:12:00,62.1,55.4,30.22,SSE,168,0.0,0.0,79,0.00,,,0.00,meteohub,2013-06-22 06:12:00,
2013-06-22 02:17:00,61.9,55.6,30.22,East,100,0.0,0.0,80,0.00,,,0.00,meteohub,2013-06-22 06:17:00,
2013-06-22 02:22:00,61.9,55.6,30.22,East,100,0.0,0.0,80,0.00,,,0.00,meteohub,2013-06-22 06:22:00,
2013-06-22 02:27:00,61.7,55.4,30.22,East,100,0.0,0.0,80,0.00,,,0.00,meteohub,2013-06-22 06:27:00,
2013-06-22 02:32:00,61.3,55.0,30.22,East,100,0.0,0.0,80,0.00,,,0.00,meteohub,2013-06-22 06:32:00,
2013-06-22 02:37:00,61.3,55.4,30.22,SE,145,0.0,0.0,81,0.00,,,0.00,meteohub,2013-06-22 06:37:00,
2013-06-22 02:42:00,61.3,55.4,30.19,East,100,0.0,0.0,81,0.00,,,0.00,meteohub,2013-06-22 06:42:00,
2013-06-22 02:47:00,61.0,55.0,30.19,NW,325,0.0,0.0,81,0.00,,,0.00,meteohub,2013-06-22 06:47:00,
2013-06-22 02:52:00,60.8,54.9,30.19,South,190,0.0,0.0,81,0.00,,,0.00,meteohub,2013-06-22 06:52:00,
2013-06-22 02:57:00,60.6,55.0,30.22,NNW,348,0.0,0.0,82,0.00,,,0.00,meteohub,2013-06-22 06:57:00,
2013-06-22 03:02:00,60.4,54.9,30.22,South,190,0.0,0.0,82,0.00,,,0.00,meteohub,2013-06-22 07:02:00,
2013-06-22 03:07:00,60.4,54.9,30.22,SSE,168,0.0,0.0,82,0.00,,,0.00,meteohub,2013-06-22 07:07:00,
2013-06-22 03:12:00,60.4,54.9,30.22,SSE,168,0.0,0.0,82,0.00,,,0.00,meteohub,2013-06-22 07:12:00,
2013-06-22 03:17:00,60.3,54.7,30.22,NNW,348,3.0,0.0,82,0.00,,,0.00,meteohub,2013-06-22 07:17:00,
2013-06-22 03:22:00,60.1,54.5,30.22,SSE,168,2.0,3.0,82,0.00,,,0.00,meteohub,2013-06-22 07:22:00,
2013-06-22 03:27:00,60.1,54.9,30.22,SSW,212,0.0,3.0,83,0.00,,,0.00,meteohub,2013-06-22 07:27:00,
2013-06-22 03:32:00,60.1,54.9,30.22,WSW,258,0.0,3.0,83,0.00,,,0.00,meteohub,2013-06-22 07:32:00,
2013-06-22 03:37:00,59.9,55.0,30.22,SE,145,0.0,3.0,84,0.00,,,0.00,meteohub,2013-06-22 07:37:00,
2013-06-22 03:42:00,59.9,55.0,30.22,East,100,0.0,0.0,84,0.00,,,0.00,meteohub,2013-06-22 07:42:00,
2013-06-22 03:47:00,60.1,55.6,30.22,East,100,0.0,0.0,85,0.00,,,0.00,meteohub,2013-06-22 07:47:00,
2013-06-22 03:52:00,59.9,55.4,30.22,ESE,122,0.0,0.0,85,0.00,,,0.00,meteohub,2013-06-22 07:52:00,
2013-06-22 03:57:00,59.7,55.2,30.25,SW,235,0.0,0.0,85,0.00,,,0.00,meteohub,2013-06-22 07:57:00,
2013-06-22 04:02:00,59.7,54.9,30.25,SW,235,0.0,0.0,84,0.00,,,0.00,meteohub,2013-06-22 08:02:00,
2013-06-22 04:07:00,59.5,54.7,30.25,SE,145,0.0,0.0,84,0.00,,,0.00,meteohub,2013-06-22 08:07:00,
2013-06-22 04:12:00,59.5,55.0,30.22,ESE,122,0.0,0.0,85,0.00,,,0.00,meteohub,2013-06-22 08:12:00,
2013-06-22 04:17:00,59.7,55.2,30.22,SE,145,0.0,0.0,85,0.00,,,0.00,meteohub,2013-06-22 08:17:00,
2013-06-22 04:22:00,59.5,55.4,30.22,North,10,0.0,0.0,86,0.00,,,0.00,meteohub,2013-06-22 08:22:00,
2013-06-22 04:27:00,59.5,55.4,30.22,NW,325,0.0,0.0,86,0.00,,,0.00,meteohub,2013-06-22 08:27:00,
2013-06-22 04:32:00,59.5,55.4,30.22,NNE,32,0.0,0.0,86,0.00,,,0.00,meteohub,2013-06-22 08:32:00,
2013-06-22 04:37:00,59.5,55.8,30.22,SSW,212,0.0,0.0,87,0.00,,,0.00,meteohub,2013-06-22 08:37:00,
2013-06-22 04:42:00,59.2,55.4,30.22,North,10,3.0,4.0,87,0.00,,,0.00,meteohub,2013-06-22 08:42:00,
2013-06-22 04:47:00,59.2,55.4,30.22,WSW,258,0.0,5.0,87,0.00,,,0.00,meteohub,2013-06-22 08:47:00,
2013-06-22 04:52:00,59.2,55.4,30.22,West,280,0.0,5.0,87,0.00,,,0.00,meteohub,2013-06-22 08:52:00,
2013-06-22 04:57:00,59.0,55.2,30.22,WNW,302,0.0,5.0,87,0.00,,,0.00,meteohub,2013-06-22 08:57:00,
2013-06-22 05:02:00,58.8,55.2,30.22,NNW,348,0.0,0.0,88,0.00,,,0.00,meteohub,2013-06-22 09:02:00,
2013-06-22 05:07:00,58.8,55.2,30.22,WNW,302,0.0,3.0,88,0.00,,,0.00,meteohub,2013-06-22 09:07:00,
2013-06-22 05:12:00,58.8,55.2,30.22,WNW,302,0.0,3.0,88,0.00,,,0.00,meteohub,2013-06-22 09:12:00,
2013-06-22 05:17:00,58.8,55.6,30.22,South,190,0.0,3.0,89,0.00,,,0.00,meteohub,2013-06-22 09:17:00,
2013-06-22 05:22:00,58.8,55.6,30.22,East,100,0.0,0.0,89,0.00,,,0.00,meteohub,2013-06-22 09:22:00,
2013-06-22 05:27:00,58.8,55.9,30.22,WSW,258,0.0,0.0,90,0.00,,,0.00,meteohub,2013-06-22 09:27:00,
2013-06-22 05:32:00,58.8,55.9,30.22,SW,235,0.0,4.0,90,0.00,,,0.00,meteohub,2013-06-22 09:32:00,
2013-06-22 05:37:00,58.6,55.8,30.22,East,100,0.0,4.0,90,0.00,,,0.00,meteohub,2013-06-22 09:37:00,
2013-06-22 05:42:00,58.6,55.8,30.22,North,10,0.0,4.0,90,0.00,,,0.00,meteohub,2013-06-22 09:42:00,
2013-06-22 05:47:00,58.8,56.1,30.22,North,10,0.0,2.0,91,0.00,,,0.00,meteohub,2013-06-22 09:47:00,
2013-06-22 05:52:00,58.6,55.9,30.22,WNW,302,0.0,0.0,91,0.00,,,0.00,meteohub,2013-06-22 09:52:00,
2013-06-22 05:57:00,58.6,55.9,30.22,South,190,0.0,0.0,91,0.00,,,0.00,meteohub,2013-06-22 09:57:00,
2013-06-22 06:02:00,58.5,55.8,30.22,SSW,212,0.0,0.0,91,0.00,,,0.00,meteohub,2013-06-22 10:02:00,
2013-06-22 06:07:00,58.6,55.9,30.22,WSW,258,0.0,0.0,91,0.00,,,0.00,meteohub,2013-06-22 10:07:00,
2013-06-22 06:12:00,58.5,55.8,30.22,NNE,32,0.0,0.0,91,0.00,,,0.00,meteohub,2013-06-22 10:12:00,
2013-06-22 06:17:00,58.5,55.8,30.22,ESE,122,0.0,0.0,91,0.00,,,0.00,meteohub,2013-06-22 10:17:00,
2013-06-22 06:22:00,58.5,55.8,30.22,East,100,0.0,0.0,91,0.00,,,0.00,meteohub,2013-06-22 10:22:00,
2013-06-22 06:27:00,58.6,56.3,30.22,South,190,0.0,0.0,92,0.00,,,0.00,meteohub,2013-06-22 10:27:00,
2013-06-22 06:32:00,58.5,56.1,30.25,SSE,168,0.0,0.0,92,0.00,,,0.00,meteohub,2013-06-22 10:32:00,
2013-06-22 06:37:00,58.6,56.3,30.25,ESE,122,0.0,3.0,92,0.00,,,0.00,meteohub,2013-06-22 10:37:00,
2013-06-22 06:42:00,58.5,56.1,30.22,South,190,0.0,3.0,92,0.00,,,0.00,meteohub,2013-06-22 10:42:00,
2013-06-22 06:47:00,58.5,56.1,30.22,East,100,0.0,3.0,92,0.00,,,0.00,meteohub,2013-06-22 10:47:00,
2013-06-22 06:52:00,58.6,56.3,30.22,NNW,348,4.0,0.0,92,0.00,,,0.00,meteohub,2013-06-22 10:52:00,
2013-06-22 06:57:00,58.5,56.1,30.22,NW,325,4.0,4.0,92,0.00,,,0.00,meteohub,2013-06-22 10:57:00,
2013-06-22 07:02:00,58.5,56.1,30.22,NNW,348,2.0,4.0,92,0.00,,,0.00,meteohub,2013-06-22 11:02:00,
2013-06-22 07:12:00,58.5,56.1,30.25,North,10,2.0,7.0,92,0.00,,,0.00,meteohub,2013-06-22 11:12:00,
2013-06-22 07:17:00,58.5,56.1,30.25,SSW,212,0.0,7.0,92,0.00,,,0.00,meteohub,2013-06-22 11:17:00,
2013-06-22 07:22:00,58.8,56.5,30.25,SSE,168,0.0,7.0,92,0.00,,,0.00,meteohub,2013-06-22 11:22:00,
2013-06-22 07:27:00,58.5,56.1,30.22,North,10,2.0,3.0,92,0.00,,,0.00,meteohub,2013-06-22 11:27:00,
2013-06-22 07:32:00,58.5,56.5,30.22,NNW,348,0.0,6.0,93,0.00,,,0.00,meteohub,2013-06-22 11:32:00,
2013-06-22 07:37:00,58.5,56.5,30.22,NW,325,2.0,6.0,93,0.00,,,0.00,meteohub,2013-06-22 11:37:00,
2013-06-22 07:42:00,58.6,56.7,30.22,SW,235,0.0,5.0,93,0.00,,,0.00,meteohub,2013-06-22 11:42:00,
2013-06-22 07:47:00,58.6,56.7,30.22,NNE,32,0.0,3.0,93,0.00,,,0.00,meteohub,2013-06-22 11:47:00,
2013-06-22 07:52:00,59.0,56.7,30.22,NNE,32,0.0,3.0,92,0.00,,,0.00,meteohub,2013-06-22 11:52:00,
2013-06-22 07:57:00,59.2,56.8,30.22,NNW,348,0.0,2.0,92,0.00,,,0.00,meteohub,2013-06-22 11:57:00,
2013-06-22 08:02:00,59.4,57.0,30.22,NNW,348,4.0,5.0,92,0.00,,,0.00,meteohub,2013-06-22 12:02:00,
2013-06-22 08:07:00,59.4,57.0,30.22,North,10,0.0,5.0,92,0.00,,,0.00,meteohub,2013-06-22 12:07:00,
2013-06-22 08:12:00,59.5,57.2,30.22,North,10,4.0,5.0,92,0.00,,,0.00,meteohub,2013-06-22 12:12:00,
2013-06-22 08:17:00,59.5,57.2,30.22,North,10,0.0,5.0,92,0.00,,,0.00,meteohub,2013-06-22 12:17:00,
2013-06-22 08:22:00,59.7,57.4,30.22,NW,325,0.0,6.0,92,0.00,,,0.00,meteohub,2013-06-22 12:22:00,
2013-06-22 08:27:00,59.9,57.6,30.22,WNW,302,3.0,6.0,92,0.00,,,0.00,meteohub,2013-06-22 12:27:00,
2013-06-22 08:32:00,59.9,57.6,30.22,NW,325,0.0,4.0,92,0.00,,,0.00,meteohub,2013-06-22 12:32:00,
2013-06-22 08:37:00,60.3,57.9,30.22,North,10,0.0,4.0,92,0.00,,,0.00,meteohub,2013-06-22 12:37:00,
2013-06-22 08:47:00,60.8,58.1,30.22,NW,325,5.0,5.0,91,0.00,,,0.00,meteohub,2013-06-22 12:47:00,
2013-06-22 08:52:00,61.2,58.3,30.22,NNE,32,0.0,7.0,90,0.00,,,0.00,meteohub,2013-06-22 12:52:00,
2013-06-22 08:57:00,61.5,58.6,30.22,ENE,78,0.0,7.0,90,0.00,,,0.00,meteohub,2013-06-22 12:57:00,
2013-06-22 09:02:00,61.9,59.0,30.22,North,10,0.0,7.0,90,0.00,,,0.00,meteohub,2013-06-22 13:02:00,
2013-06-22 09:07:00,62.2,59.4,30.22,NNW,348,4.0,0.0,90,0.00,,,0.00,meteohub,2013-06-22 13:07:00,
2013-06-22 09:12:00,62.6,59.4,30.22,NNW,348,3.0,7.0,89,0.00,,,0.00,meteohub,2013-06-22 13:12:00,
2013-06-22 09:17:00,63.1,59.9,30.22,ENE,78,0.0,7.0,89,0.00,,,0.00,meteohub,2013-06-22 13:17:00,
2013-06-22 09:22:00,63.7,60.4,30.22,ENE,78,2.0,7.0,89,0.00,,,0.00,meteohub,2013-06-22 13:22:00,
2013-06-22 09:27:00,64.2,60.3,30.22,NW,325,5.0,5.0,87,0.00,,,0.00,meteohub,2013-06-22 13:27:00,
2013-06-22 09:32:00,64.8,59.9,30.22,WNW,302,7.0,7.0,84,0.00,,,0.00,meteohub,2013-06-22 13:32:00,
2013-06-22 09:37:00,65.5,60.4,30.22,WNW,302,5.0,9.0,84,0.00,,,0.00,meteohub,2013-06-22 13:37:00,
2013-06-22 09:42:00,65.7,61.0,30.22,NNE,32,2.0,9.0,85,0.00,,,0.00,meteohub,2013-06-22 13:42:00,
2013-06-22 09:47:00,66.0,61.0,30.22,NW,325,7.0,9.0,84,0.00,,,0.00,meteohub,2013-06-22 13:47:00,
2013-06-22 09:52:00,66.4,60.8,30.22,NNW,348,5.0,8.0,82,0.00,,,0.00,meteohub,2013-06-22 13:52:00,
2013-06-22 10:02:00,67.3,60.3,30.22,WNW,302,2.0,9.0,78,0.00,,,0.00,meteohub,2013-06-22 14:02:00,
2013-06-22 10:07:00,67.6,59.7,30.22,NW,325,6.0,9.0,76,0.00,,,0.00,meteohub,2013-06-22 14:07:00,
2013-06-22 10:12:00,68.2,59.5,30.22,NNW,348,3.0,10.0,74,0.00,,,0.00,meteohub,2013-06-22 14:12:00,
2013-06-22 10:17:00,68.4,59.7,30.22,North,10,5.0,10.0,74,0.00,,,0.00,meteohub,2013-06-22 14:17:00,
2013-06-22 10:22:00,68.9,59.9,30.22,NNW,348,6.0,10.0,73,0.00,,,0.00,meteohub,2013-06-22 14:22:00,
2013-06-22 10:27:00,69.1,59.7,30.22,WNW,302,12.0,12.0,72,0.00,,,0.00,meteohub,2013-06-22 14:27:00,
2013-06-22 10:32:00,69.6,59.7,30.22,NNW,348,8.0,12.0,71,0.00,,,0.00,meteohub,2013-06-22 14:32:00,
2013-06-22 10:37:00,69.4,58.8,30.22,WNW,302,5.0,12.0,69,0.00,,,0.00,meteohub,2013-06-22 14:37:00,
2013-06-22 10:42:00,69.3,57.9,30.22,West,280,0.0,12.0,67,0.00,,,0.00,meteohub,2013-06-22 14:42:00,
2013-06-22 10:47:00,69.4,58.1,30.22,SE,145,3.0,8.0,67,0.00,,,0.00,meteohub,2013-06-22 14:47:00,
2013-06-22 10:52:00,69.6,59.4,30.22,SSE,168,0.0,6.0,70,0.00,,,0.00,meteohub,2013-06-22 14:52:00,
2013-06-22 10:57:00,70.0,59.4,30.22,North,10,0.0,4.0,69,0.00,,,0.00,meteohub,2013-06-22 14:57:00,
2013-06-22 11:02:00,70.5,59.5,30.22,SE,145,0.0,6.0,68,0.00,,,0.00,meteohub,2013-06-22 15:02:00,
2013-06-22 11:07:00,70.9,59.7,30.22,South,190,5.0,6.0,68,0.00,,,0.00,meteohub,2013-06-22 15:07:00,
2013-06-22 11:17:00,71.6,60.4,30.22,North,10,5.0,5.0,68,0.00,,,0.00,meteohub,2013-06-22 15:17:00,
2013-06-22 11:22:00,71.8,59.0,30.22,NNW,348,5.0,5.0,64,0.00,,,0.00,meteohub,2013-06-22 15:22:00,
2013-06-22 11:27:00,72.0,57.7,30.25,ENE,78,3.0,9.0,61,0.00,,,0.00,meteohub,2013-06-22 15:27:00,
2013-06-22 11:32:00,72.3,57.2,30.25,NNW,348,9.0,9.0,59,0.00,,,0.00,meteohub,2013-06-22 15:32:00,
2013-06-22 11:37:00,72.5,57.9,30.25,North,10,7.0,10.0,60,0.00,,,0.00,meteohub,2013-06-22 15:37:00,
2013-06-22 11:42:00,72.9,58.6,30.22,NW,325,5.0,10.0,61,0.00,,,0.00,meteohub,2013-06-22 15:42:00,
2013-06-22 11:47:00,73.4,58.3,30.22,NW,325,4.0,10.0,59,0.00,,,0.00,meteohub,2013-06-22 15:47:00,
2013-06-22 11:52:00,73.4,56.3,30.22,NNE,32,2.0,7.0,55,0.00,,,0.00,meteohub,2013-06-22 15:52:00,
2013-06-22 11:57:00,73.8,58.1,30.22,WSW,258,0.0,7.0,58,0.00,,,0.00,meteohub,2013-06-22 15:57:00,
2013-06-22 12:02:00,74.3,60.4,30.22,NNW,348,3.0,7.0,62,0.00,,,0.00,meteohub,2013-06-22 16:02:00,
2013-06-22 12:07:00,74.5,61.0,30.22,ENE,78,4.0,5.0,63,0.00,,,0.00,meteohub,2013-06-22 16:07:00,
2013-06-22 12:12:00,74.8,59.0,30.22,ENE,78,2.0,5.0,58,0.00,,,0.00,meteohub,2013-06-22 16:12:00,
2013-06-22 12:17:00,75.2,57.4,30.22,ENE,78,5.0,6.0,54,0.00,,,0.00,meteohub,2013-06-22 16:17:00,
2013-06-22 12:22:00,75.6,57.2,30.22,SSW,212,3.0,6.0,53,0.00,,,0.00,meteohub,2013-06-22 16:22:00,
2013-06-22 12:27:00,75.6,57.7,30.22,NE,55,5.0,6.0,54,0.00,,,0.00,meteohub,2013-06-22 16:27:00,
2013-06-22 12:32:00,75.7,55.8,30.22,North,10,5.0,7.0,50,0.00,,,0.00,meteohub,2013-06-22 16:32:00,
2013-06-22 12:37:00,75.7,54.7,30.22,NW,325,3.0,7.0,48,0.00,,,0.00,meteohub,2013-06-22 16:37:00,
2013-06-22 12:42:00,76.5,57.0,30.22,NNW,348,3.0,7.0,51,0.00,,,0.00,meteohub,2013-06-22 16:42:00,
2013-06-22 12:47:00,76.5,54.7,30.22,NNE,32,3.0,7.0,47,0.00,,,0.00,meteohub,2013-06-22 16:47:00,
2013-06-22 12:52:00,76.6,54.9,30.22,SE,145,3.0,7.0,47,0.00,,,0.00,meteohub,2013-06-22 16:52:00,
2013-06-22 12:57:00,77.0,54.0,30.22,SW,235,4.0,7.0,45,0.00,,,0.00,meteohub,2013-06-22 16:57:00,
2013-06-22 13:02:00,77.4,55.0,30.22,NW,325,0.0,7.0,46,0.00,,,0.00,meteohub,2013-06-22 17:02:00,
2013-06-22 13:07:00,77.5,55.2,30.22,NE,55,0.0,6.0,46,0.00,,,0.00,meteohub,2013-06-22 17:07:00,
2013-06-22 13:12:00,77.7,54.7,30.19,ESE,122,3.0,6.0,45,0.00,,,0.00,meteohub,2013-06-22 17:12:00,
2013-06-22 13:17:00,77.7,54.1,30.19,NW,325,6.0,6.0,44,0.00,,,0.00,meteohub,2013-06-22 17:17:00,
2013-06-22 13:22:00,77.9,54.9,30.19,South,190,3.0,8.0,45,0.00,,,0.00,meteohub,2013-06-22 17:22:00,
2013-06-22 13:27:00,77.9,53.6,30.22,SSW,212,6.0,9.0,43,0.00,,,0.00,meteohub,2013-06-22 17:27:00,
2013-06-22 13:32:00,78.4,55.4,30.22,South,190,5.0,9.0,45,0.00,,,0.00,meteohub,2013-06-22 17:32:00,
2013-06-22 13:37:00,79.0,56.5,30.22,South,190,4.0,9.0,46,0.00,,,0.00,meteohub,2013-06-22 17:37:00,
2013-06-22 13:42:00,79.2,54.1,30.19,SE,145,3.0,7.0,42,0.00,,,0.00,meteohub,2013-06-22 17:42:00,
2013-06-22 13:47:00,79.3,55.6,30.19,SE,145,3.0,7.0,44,0.00,,,0.00,meteohub,2013-06-22 17:47:00,
2013-06-22 13:52:00,79.5,55.8,30.19,East,100,0.0,7.0,44,0.00,,,0.00,meteohub,2013-06-22 17:52:00,
2013-06-22 13:57:00,79.5,53.8,30.22,WSW,258,5.0,7.0,41,0.00,,,0.00,meteohub,2013-06-22 17:57:00,
2013-06-22 14:02:00,80.2,56.3,30.22,NNE,32,5.0,8.0,44,0.00,,,0.00,meteohub,2013-06-22 18:02:00,
2013-06-22 14:07:00,80.2,55.0,30.22,East,100,5.0,9.0,42,0.00,,,0.00,meteohub,2013-06-22 18:07:00,
2013-06-22 14:12:00,80.2,54.3,30.22,WSW,258,4.0,9.0,41,0.00,,,0.00,meteohub,2013-06-22 18:12:00,
2013-06-22 14:17:00,80.8,55.6,30.22,NNW,348,5.0,9.0,42,0.00,,,0.00,meteohub,2013-06-22 18:17:00,
2013-06-22 14:27:00,81.1,55.2,30.19,West,280,0.0,7.0,41,0.00,,,0.00,meteohub,2013-06-22 18:27:00,
2013-06-22 14:32:00,81.1,54.5,30.19,NW,325,4.0,7.0,40,0.00,,,0.00,meteohub,2013-06-22 18:32:00,
2013-06-22 14:37:00,81.5,56.1,30.19,North,10,9.0,9.0,42,0.00,,,0.00,meteohub,2013-06-22 18:37:00,
2013-06-22 14:42:00,81.5,55.6,30.19,NNW,348,6.0,9.0,41,0.00,,,0.00,meteohub,2013-06-22 18:42:00,
2013-06-22 14:47:00,82.0,56.7,30.19,WNW,302,4.0,11.0,42,0.00,,,0.00,meteohub,2013-06-22 18:47:00,
2013-06-22 14:52:00,82.2,56.8,30.19,West,280,3.0,11.0,42,0.00,,,0.00,meteohub,2013-06-22 18:52:00,
2013-06-22 14:57:00,82.4,55.0,30.19,SSW,212,3.0,8.0,39,0.00,,,0.00,meteohub,2013-06-22 18:57:00,
2013-06-22 15:02:00,82.6,55.0,30.19,East,100,6.0,8.0,39,0.00,,,0.00,meteohub,2013-06-22 19:02:00,
2013-06-22 15:07:00,82.2,54.9,30.19,SW,235,5.0,8.0,39,0.00,,,0.00,meteohub,2013-06-22 19:07:00,
2013-06-22 15:12:00,82.2,54.1,30.19,SE,145,7.0,7.0,38,0.00,,,0.00,meteohub,2013-06-22 19:12:00,
2013-06-22 15:17:00,82.8,54.5,30.19,SSW,212,9.0,9.0,38,0.00,,,0.00,meteohub,2013-06-22 19:17:00,
2013-06-22 15:22:00,82.8,55.2,30.19,NW,325,4.0,10.0,39,0.00,,,0.00,meteohub,2013-06-22 19:22:00,
2013-06-22 15:27:00,83.1,55.6,30.19,NNW,348,4.0,10.0,39,0.00,,,0.00,meteohub,2013-06-22 19:27:00,
2013-06-22 15:32:00,83.1,54.1,30.19,NNW,348,7.0,10.0,37,0.00,,,0.00,meteohub,2013-06-22 19:32:00,
2013-06-22 15:37:00,83.1,53.4,30.19,SSE,168,8.0,9.0,36,0.00,,,0.00,meteohub,2013-06-22 19:37:00,
2013-06-22 15:42:00,83.5,55.2,30.16,ENE,78,0.0,9.0,38,0.00,,,0.00,meteohub,2013-06-22 19:42:00,
2013-06-22 15:47:00,83.7,56.8,30.16,NE,55,5.0,9.0,40,0.00,,,0.00,meteohub,2013-06-22 19:47:00,
2013-06-22 15:52:00,84.0,56.5,30.16,NW,325,8.0,9.0,39,0.00,,,0.00,meteohub,2013-06-22 19:52:00,
2013-06-22 15:57:00,84.4,56.7,30.16,North,10,4.0,8.0,39,0.00,,,0.00,meteohub,2013-06-22 19:57:00,
2013-06-22 16:02:00,84.7,57.7,30.16,East,100,4.0,8.0,40,0.00,,,0.00,meteohub,2013-06-22 20:02:00,
2013-06-22 16:07:00,85.1,58.1,30.16,SSW,212,4.0,8.0,40,0.00,,,0.00,meteohub,2013-06-22 20:07:00,
2013-06-22 16:12:00,84.7,56.3,30.16,ENE,78,8.0,8.0,38,0.00,,,0.00,meteohub,2013-06-22 20:12:00,
2013-06-22 16:17:00,83.8,54.0,30.16,East,100,7.0,9.0,36,0.00,,,0.00,meteohub,2013-06-22 20:17:00,
2013-06-22 16:22:00,83.8,55.6,30.16,SW,235,3.0,9.0,38,0.00,,,0.00,meteohub,2013-06-22 20:22:00,
2013-06-22 16:27:00,84.9,57.2,30.16,NNW,348,5.0,9.0,39,0.00,,,0.00,meteohub,2013-06-22 20:27:00,
2013-06-22 16:32:00,84.6,56.8,30.16,NNW,348,5.0,9.0,39,0.00,,,0.00,meteohub,2013-06-22 20:32:00,
2013-06-22 16:37:00,84.6,54.7,30.16,NNW,348,7.0,7.0,36,0.00,,,0.00,meteohub,2013-06-22 20:37:00,
2013-06-22 16:42:00,84.7,55.6,30.16,North,10,6.0,8.0,37,0.00,,,0.00,meteohub,2013-06-22 20:42:00,
2013-06-22 16:52:00,84.9,55.8,30.16,WNW,302,5.0,13.0,37,0.00,,,0.00,meteohub,2013-06-22 20:52:00,
2013-06-22 16:57:00,85.6,57.9,30.13,NNW,348,0.0,13.0,39,0.00,,,0.00,meteohub,2013-06-22 20:57:00,
2013-06-22 17:02:00,86.0,58.1,30.13,WSW,258,3.0,7.0,39,0.00,,,0.00,meteohub,2013-06-22 21:02:00,
2013-06-22 17:07:00,85.6,56.3,30.13,WSW,258,5.0,7.0,37,0.00,,,0.00,meteohub,2013-06-22 21:07:00,
2013-06-22 17:12:00,86.2,57.6,30.13,SSW,212,0.0,8.0,38,0.00,,,0.00,meteohub,2013-06-22 21:12:00,
2013-06-22 17:17:00,86.5,57.9,30.13,WSW,258,0.0,8.0,38,0.00,,,0.00,meteohub,2013-06-22 21:17:00,
2013-06-22 17:22:00,87.1,57.6,30.13,South,190,7.0,8.0,37,0.00,,,0.00,meteohub,2013-06-22 21:22:00,
2013-06-22 17:27:00,86.4,56.3,30.13,WNW,302,4.0,9.0,36,0.00,,,0.00,meteohub,2013-06-22 21:27:00,
2013-06-22 17:32:00,86.2,57.6,30.13,ESE,122,6.0,9.0,38,0.00,,,0.00,meteohub,2013-06-22 21:32:00,
2013-06-22 17:37:00,86.5,55.6,30.13,NNE,32,2.0,9.0,35,0.00,,,0.00,meteohub,2013-06-22 21:37:00,
2013-06-22 17:42:00,87.1,58.5,30.13,SSW,212,11.0,11.0,38,0.00,,,0.00,meteohub,2013-06-22 21:42:00,
2013-06-22 17:47:00,85.6,54.9,30.13,SE,145,5.0,11.0,35,0.00,,,0.00,meteohub,2013-06-22 21:47:00,
2013-06-22 17:52:00,85.5,54.7,30.13,SSW,212,8.0,11.0,35,0.00,,,0.00,meteohub,2013-06-22 21:52:00,
2013-06-22 17:57:00,85.6,56.3,30.10,West,280,0.0,11.0,37,0.00,,,0.00,meteohub,2013-06-22 21:57:00,
2013-06-22 18:02:00,85.5,57.0,30.10,South,190,7.0,8.0,38,0.00,,,0.00,meteohub,2013-06-22 22:02:00,
2013-06-22 18:07:00,84.6,55.4,30.10,SSW,212,6.0,9.0,37,0.00,,,0.00,meteohub,2013-06-22 22:07:00,
2013-06-22 18:12:00,84.9,56.5,30.10,South,190,2.0,9.0,38,0.00,,,0.00,meteohub,2013-06-22 22:12:00,
2013-06-22 18:22:00,84.6,56.1,30.10,SW,235,5.0,11.0,38,0.00,,,0.00,meteohub,2013-06-22 22:22:00,
2013-06-22 18:27:00,83.8,55.6,30.10,SSE,168,5.0,11.0,38,0.00,,,0.00,meteohub,2013-06-22 22:27:00,
2013-06-22 18:32:00,84.0,55.8,30.10,WSW,258,3.0,7.0,38,0.00,,,0.00,meteohub,2013-06-22 22:32:00,
2013-06-22 18:37:00,83.7,56.1,30.10,NE,55,3.0,7.0,39,0.00,,,0.00,meteohub,2013-06-22 22:37:00,
2013-06-22 18:42:00,82.9,54.7,30.10,West,280,3.0,11.0,38,0.00,,,0.00,meteohub,2013-06-22 22:42:00,
2013-06-22 18:47:00,82.6,55.8,30.10,NE,55,2.0,11.0,40,0.00,,,0.00,meteohub,2013-06-22 22:47:00,
2013-06-22 18:52:00,82.4,55.6,30.10,SSW,212,3.0,11.0,40,0.00,,,0.00,meteohub,2013-06-22 22:52:00,
2013-06-22 18:57:00,82.2,56.1,30.10,SSE,168,3.0,6.0,41,0.00,,,0.00,meteohub,2013-06-22 22:57:00,
2013-06-22 19:02:00,81.9,55.9,30.10,SW,235,4.0,8.0,41,0.00,,,0.00,meteohub,2013-06-22 23:02:00,
2013-06-22 19:07:00,81.7,56.3,30.10,East,100,6.0,8.0,42,0.00,,,0.00,meteohub,2013-06-22 23:07:00,
2013-06-22 19:12:00,81.0,54.3,30.13,NE,55,2.0,8.0,40,0.00,,,0.00,meteohub,2013-06-22 23:12:00,
2013-06-22 19:17:00,80.8,54.9,30.13,NE,55,3.0,8.0,41,0.00,,,0.00,meteohub,2013-06-22 23:17:00,
2013-06-22 19:22:00,80.2,53.8,30.13,NE,55,5.0,8.0,40,0.00,,,0.00,meteohub,2013-06-22 23:22:00,
2013-06-22 19:27:00,80.1,53.6,30.10,South,190,4.0,7.0,40,0.00,,,0.00,meteohub,2013-06-22 23:27:00,
2013-06-22 19:32:00,80.1,53.6,30.10,South,190,0.0,7.0,40,0.00,,,0.00,meteohub,2013-06-22 23:32:00,
2013-06-22 19:37:00,79.5,53.1,30.10,SSW,212,2.0,7.0,40,0.00,,,0.00,meteohub,2013-06-22 23:37:00,
2013-06-22 19:42:00,79.2,53.4,30.10,SW,235,5.0,7.0,41,0.00,,,0.00,meteohub,2013-06-22 23:42:00,
2013-06-22 19:47:00,79.0,54.0,30.13,ESE,122,0.0,7.0,42,0.00,,,0.00,meteohub,2013-06-22 23:47:00,
2013-06-22 19:52:00,78.6,54.3,30.13,WSW,258,3.0,7.0,43,0.00,,,0.00,meteohub,2013-06-22 23:52:00,
2013-06-22 19:57:00,78.4,54.7,30.13,SE,145,6.0,6.0,44,0.00,,,0.00,meteohub,2013-06-22 23:57:00,
2013-06-22 20:02:00,77.5,54.0,30.13,South,190,3.0,6.0,44,0.00,,,0.00,meteohub,2013-06-23 00:02:00,
2013-06-22 20:07:00,77.5,55.2,30.13,SW,235,2.0,6.0,46,0.00,,,0.00,meteohub,2013-06-23 00:07:00,
2013-06-22 20:12:00,77.2,54.9,30.13,NNE,32,0.0,6.0,46,0.00,,,0.00,meteohub,2013-06-23 00:12:00,
2013-06-22 20:17:00,77.0,54.0,30.13,North,10,3.0,6.0,45,0.00,,,0.00,meteohub,2013-06-23 00:17:00,
2013-06-22 20:22:00,76.6,54.9,30.13,ESE,122,0.0,5.0,47,0.00,,,0.00,meteohub,2013-06-23 00:22:00,
2013-06-22 20:27:00,76.3,55.2,30.13,SE,145,3.0,5.0,48,0.00,,,0.00,meteohub,2013-06-23 00:27:00,
2013-06-22 20:32:00,75.7,54.7,30.13,East,100,3.0,6.0,48,0.00,,,0.00,meteohub,2013-06-23 00:32:00,
2013-06-22 20:37:00,75.2,54.1,30.13,SE,145,4.0,6.0,48,0.00,,,0.00,meteohub,2013-06-23 00:37:00,
2013-06-22 20:42:00,75.0,54.5,30.13,SE,145,5.0,6.0,49,0.00,,,0.00,meteohub,2013-06-23 00:42:00,
2013-06-22 20:47:00,74.7,54.9,30.13,SE,145,4.0,5.0,50,0.00,,,0.00,meteohub,2013-06-23 00:47:00,
2013-06-22 20:52:00,74.3,54.5,30.13,South,190,5.0,5.0,50,0.00,,,0.00,meteohub,2013-06-23 00:52:00,
2013-06-22 20:57:00,73.9,54.7,30.13,SE,145,5.0,8.0,51,0.00,,,0.00,meteohub,2013-06-23 00:57:00,
2013-06-22 21:02:00,73.6,54.3,30.16,ESE,122,5.0,8.0,51,0.00,,,0.00,meteohub,2013-06-23 01:02:00,
2013-06-22 21:07:00,73.2,54.5,30.16,ESE,122,5.0,8.0,52,0.00,,,0.00,meteohub,2013-06-23 01:07:00,
2013-06-22 21:12:00,72.9,54.7,30.16,SE,145,3.0,6.0,53,0.00,,,0.00,meteohub,2013-06-23 01:12:00,
2013-06-22 21:17:00,72.5,54.3,30.16,SE,145,0.0,6.0,53,0.00,,,0.00,meteohub,2013-06-23 01:17:00,
2013-06-22 21:22:00,72.3,54.3,30.16,SE,145,4.0,6.0,53,0.00,,,0.00,meteohub,2013-06-23 01:22:00,
2013-06-22 21:27:00,71.8,53.8,30.16,SSE,168,0.0,5.0,53,0.00,,,0.00,meteohub,2013-06-23 01:27:00,
2013-06-22 21:32:00,71.4,54.0,30.16,ENE,78,2.0,5.0,54,0.00,,,0.00,meteohub,2013-06-23 01:32:00,
2013-06-22 21:37:00,71.2,53.8,30.16,SSE,168,4.0,5.0,54,0.00,,,0.00,meteohub,2013-06-23 01:37:00,
2013-06-22 21:42:00,70.9,54.0,30.16,ESE,122,3.0,4.0,55,0.00,,,0.00,meteohub,2013-06-23 01:42:00,
2013-06-22 21:47:00,70.7,54.3,30.16,SSE,168,3.0,5.0,56,0.00,,,0.00,meteohub,2013-06-23 01:47:00,
2013-06-22 21:52:00,70.3,54.0,30.16,SSW,212,4.0,5.0,56,0.00,,,0.00,meteohub,2013-06-23 01:52:00,
2013-06-22 21:57:00,70.2,54.1,30.16,ESE,122,3.0,5.0,57,0.00,,,0.00,meteohub,2013-06-23 01:57:00,
2013-06-22 22:02:00,69.8,54.0,30.16,East,100,0.0,4.0,57,0.00,,,0.00,meteohub,2013-06-23 02:02:00,
2013-06-22 22:12:00,69.3,53.8,30.16,NW,325,0.0,4.0,58,0.00,,,0.00,meteohub,2013-06-23 02:12:00,
2013-06-22 22:17:00,68.7,54.3,30.16,NNE,32,0.0,2.0,60,0.00,,,0.00,meteohub,2013-06-23 02:17:00,
2013-06-22 22:22:00,68.2,54.1,30.16,SE,145,2.0,2.0,61,0.00,,,0.00,meteohub,2013-06-23 02:22:00,
2013-06-22 22:27:00,68.4,54.9,30.16,SSE,168,4.0,4.0,62,0.00,,,0.00,meteohub,2013-06-23 02:27:00,
2013-06-22 22:32:00,68.2,54.7,30.16,South,190,3.0,4.0,62,0.00,,,0.00,meteohub,2013-06-23 02:32:00,
2013-06-22 22:37:00,68.0,54.5,30.16,South,190,0.0,4.0,62,0.00,,,0.00,meteohub,2013-06-23 02:37:00,
2013-06-22 22:42:00,67.6,54.7,30.16,SSE,168,0.0,4.0,63,0.00,,,0.00,meteohub,2013-06-23 02:42:00,
2013-06-22 22:47:00,67.6,55.0,30.16,SSE,168,0.0,3.0,64,0.00,,,0.00,meteohub,2013-06-23 02:47:00,
2013-06-22 22:52:00,67.6,55.0,30.16,SSE,168,0.0,0.0,64,0.00,,,0.00,meteohub,2013-06-23 02:52:00,
2013-06-22 22:57:00,67.5,54.9,30.16,SE,145,0.0,0.0,64,0.00,,,0.00,meteohub,2013-06-23 02:57:00,
2013-06-22 23:02:00,67.1,54.9,30.16,NNW,348,0.0,0.0,65,0.00,,,0.00,meteohub,2013-06-23 03:02:00,
2013-06-22 23:07:00,66.7,55.0,30.16,WNW,302,0.0,4.0,66,0.00,,,0.00,meteohub,2013-06-23 03:07:00,
2013-06-22 23:12:00,66.6,54.9,30.19,SE,145,0.0,4.0,66,0.00,,,0.00,meteohub,2013-06-23 03:12:00,
2013-06-22 23:17:00,66.6,54.9,30.19,SSE,168,0.0,4.0,66,0.00,,,0.00,meteohub,2013-06-23 03:17:00,
2013-06-22 23:22:00,66.4,55.0,30.19,SSE,168,0.0,0.0,67,0.00,,,0.00,meteohub,2013-06-23 03:22:00,
2013-06-22 23:27:00,66.2,54.9,30.19,SE,145,0.0,0.0,67,0.00,,,0.00,meteohub,2013-06-23 03:27:00,
2013-06-22 23:32:00,66.2,54.9,30.19,SE,145,0.0,0.0,67,0.00,,,0.00,meteohub,2013-06-23 03:32:00,
2013-06-22 23:37:00,66.0,55.2,30.19,SE,145,0.0,0.0,68,0.00,,,0.00,meteohub,2013-06-23 03:37:00,
2013-06-22 23:42:00,66.0,55.2,30.19,SE,145,0.0,0.0,68,0.00,,,0.00,meteohub,2013-06-23 03:42:00,
2013-06-22 23:47:00,65.7,55.2,30.19,East,100,0.0,0.0,69,0.00,,,0.00,meteohub,2013-06-23 03:47:00,
2013-06-22 23:52:00,65.7,55.2,30.19,East,100,0.0,0.0,69,0.00,,,0.00,meteohub,2013-06-23 03:52:00,
2013-06-22 23:57:00,65.7,55.2,30.19,East,100,0.0,0.0,69,0.00,,,0.00,meteohub,2013-06-23 03:57:00,